TimeCST,TemperatureF,Dew PointF,Humidity,Sea Level PressureIn,VisibilityMPH,Wind Direction,Wind SpeedMPH,Gust SpeedMPH,PrecipitationIn,Events,Conditions,WindDirDegrees,DateUTC
12:15 AM,50.0,50.0,100,29.85,0.2,Calm,Calm,-,N/A,Rain,Light Rain,0,2012-12-08 06:15:00
12:35 AM,50.0,48.2,94,29.86,0.5,Calm,Calm,-,N/A,Fog,Fog,0,2012-12-08 06:35:00
12:55 AM,50.0,48.2,94,29.86,0.2,Calm,Calm,-,N/A,Fog,Fog,0,2012-12-08 06:55:00
1:15 AM,50.0,48.2,94,29.85,0.2,Calm,Calm,-,N/A,Fog,Fog,0,2012-12-08 07:15:00
1:35 AM,48.2,46.4,93,29.84,0.2,Calm,Calm,-,N/A,Fog,Fog,0,2012-12-08 07:35:00
1:55 AM,48.2,46.4,93,29.84,0.2,Calm,Calm,-,N/A,Fog,Fog,0,2012-12-08 07:55:00
2:15 AM,50.0,48.2,94,29.84,0.2,Calm,Calm,-,N/A,Fog,Fog,0,2012-12-08 08:15:00
2:35 AM,50.0,48.2,94,29.85,0.5,Calm,Calm,-,N/A,Fog,Fog,0,2012-12-08 08:35:00
2:55 AM,50.0,48.2,94,29.85,0.5,WNW,3.5,-,N/A,Rain,Light Rain,300,2012-12-08 08:55:00
3:15 AM,50.0,50.0,100,29.85,0.8,Calm,Calm,-,N/A,Rain,Light Rain,0,2012-12-08 09:15:00
3:35 AM,50.0,50.0,100,29.85,1.5,Calm,Calm,-,N/A,,Overcast,0,2012-12-08 09:35:00
3:55 AM,50.0,50.0,100,29.85,2.0,Calm,Calm,-,N/A,,Overcast,0,2012-12-08 09:55:00
4:15 AM,50.0,50.0,100,29.85,2.5,Calm,Calm,-,N/A,,Overcast,0,2012-12-08 10:15:00
4:35 AM,50.0,50.0,100,29.85,3.0,Calm,Calm,-,N/A,,Drizzle,0,2012-12-08 10:35:00
4:55 AM,51.8,50.0,94,29.86,3.0,Calm,Calm,-,0.01,,Drizzle,0,2012-12-08 10:55:00
5:15 AM,51.8,50.0,94,29.86,2.5,Calm,Calm,-,N/A,,Light Drizzle,0,2012-12-08 11:15:00
5:35 AM,50.0,50.0,100,29.87,2.5,Calm,Calm,-,N/A,,Overcast,0,2012-12-08 11:35:00
5:55 AM,50.0,50.0,100,29.87,2.5,Calm,Calm,-,N/A,,Overcast,0,2012-12-08 11:55:00
6:15 AM,50.0,50.0,100,29.88,2.5,Calm,Calm,-,N/A,,Drizzle,0,2012-12-08 12:15:00
6:35 AM,51.8,50.0,94,29.88,2.5,Calm,Calm,-,N/A,,Overcast,0,2012-12-08 12:35:00
6:55 AM,51.8,50.0,94,29.89,2.0,Calm,Calm,-,N/A,Rain,Rain,0,2012-12-08 12:55:00
7:15 AM,50.0,50.0,100,29.90,2.0,Calm,Calm,-,N/A,,Overcast,0,2012-12-08 13:15:00
7:35 AM,51.8,50.0,94,29.91,1.2,Calm,Calm,-,0.01,,Overcast,0,2012-12-08 13:35:00
7:55 AM,51.8,50.0,94,29.92,1.8,Calm,Calm,-,0.01,,Overcast,0,2012-12-08 13:55:00
8:15 AM,51.8,50.0,94,29.92,2.5,NNW,8.1,-,N/A,,Overcast,330,2012-12-08 14:15:00
8:35 AM,50.0,50.0,100,29.93,5.0,NW,8.1,-,N/A,,Overcast,320,2012-12-08 14:35:00
8:55 AM,50.0,50.0,100,29.93,10.0,NW,3.5,-,N/A,,Overcast,320,2012-12-08 14:55:00
9:15 AM,50.0,50.0,100,29.94,10.0,NW,5.8,-,N/A,,Overcast,320,2012-12-08 15:15:00
9:35 AM,50.0,50.0,100,29.95,10.0,NW,10.4,-,N/A,,Overcast,320,2012-12-08 15:35:00
9:55 AM,50.0,50.0,100,29.96,10.0,NNW,9.2,-,N/A,,Overcast,330,2012-12-08 15:55:00
10:15 AM,50.0,50.0,100,29.96,10.0,NNW,10.4,-,N/A,,Overcast,330,2012-12-08 16:15:00
10:35 AM,50.0,50.0,100,29.95,10.0,NNW,10.4,-,N/A,,Overcast,340,2012-12-08 16:35:00
10:55 AM,50.0,48.2,94,29.96,7.0,NNW,10.4,-,N/A,,Overcast,340,2012-12-08 16:55:00
11:15 AM,50.0,50.0,100,29.96,7.0,NW,8.1,-,N/A,,Overcast,320,2012-12-08 17:15:00
11:35 AM,50.0,46.4,87,29.96,5.0,NNW,9.2,-,N/A,,Overcast,330,2012-12-08 17:35:00
11:55 AM,50.0,46.4,87,29.97,5.0,NNW,8.1,-,N/A,,Overcast,340,2012-12-08 17:55:00
12:15 PM,50.0,46.4,87,29.96,7.0,North,6.9,-,N/A,,Overcast,350,2012-12-08 18:15:00
12:35 PM,50.0,46.4,87,29.96,10.0,North,8.1,-,N/A,,Overcast,360,2012-12-08 18:35:00
12:55 PM,50.0,46.4,87,29.96,10.0,North,8.1,-,N/A,,Overcast,350,2012-12-08 18:55:00
1:15 PM,51.8,46.4,82,29.96,10.0,North,6.9,-,N/A,,Overcast,10,2012-12-08 19:15:00
1:35 PM,50.0,44.6,82,29.96,10.0,North,8.1,-,N/A,,Overcast,10,2012-12-08 19:35:00
1:55 PM,50.0,44.6,82,29.95,10.0,North,9.2,-,N/A,,Overcast,360,2012-12-08 19:55:00
2:15 PM,50.0,44.6,82,29.96,10.0,North,4.6,-,N/A,,Overcast,360,2012-12-08 20:15:00
2:35 PM,50.0,44.6,82,29.96,10.0,North,6.9,-,N/A,,Overcast,360,2012-12-08 20:35:00
2:55 PM,51.8,44.6,76,29.96,10.0,NNE,4.6,-,N/A,,Overcast,30,2012-12-08 20:55:00
3:15 PM,50.0,44.6,82,29.97,10.0,NE,6.9,-,N/A,,Overcast,40,2012-12-08 21:15:00
3:35 PM,50.0,44.6,82,29.97,10.0,NNE,5.8,-,N/A,,Overcast,30,2012-12-08 21:35:00
3:55 PM,50.0,44.6,82,29.98,10.0,ENE,8.1,-,N/A,,Overcast,60,2012-12-08 21:55:00
4:15 PM,50.0,44.6,82,29.98,10.0,NE,9.2,-,N/A,,Overcast,40,2012-12-08 22:15:00
4:35 PM,50.0,44.6,82,29.99,10.0,NE,9.2,-,N/A,,Overcast,50,2012-12-08 22:35:00
4:55 PM,48.2,42.8,82,30.00,10.0,NNE,11.5,-,N/A,,Overcast,30,2012-12-08 22:55:00
5:15 PM,48.2,42.8,82,30.00,10.0,NNE,10.4,-,N/A,,Overcast,30,2012-12-08 23:15:00
5:35 PM,46.4,42.8,87,30.00,10.0,NNE,9.2,-,N/A,,Overcast,20,2012-12-08 23:35:00
5:55 PM,46.4,42.8,87,30.01,10.0,North,9.2,-,N/A,,Overcast,10,2012-12-08 23:55:00
6:15 PM,46.4,42.8,87,30.01,7.0,North,9.2,-,N/A,,Overcast,10,2012-12-09 00:15:00
6:35 PM,46.4,42.8,87,30.01,10.0,North,5.8,-,N/A,,Overcast,10,2012-12-09 00:35:00
6:55 PM,46.4,42.8,87,30.01,10.0,North,5.8,-,N/A,,Overcast,10,2012-12-09 00:55:00
7:15 PM,46.4,42.8,87,30.01,10.0,NNE,3.5,-,N/A,,Overcast,30,2012-12-09 01:15:00
7:55 PM,46.4,42.8,87,30.00,10.0,NE,5.8,-,N/A,,Overcast,40,2012-12-09 01:55:00
8:15 PM,44.6,41.0,87,30.00,10.0,NE,5.8,-,N/A,,Overcast,50,2012-12-09 02:15:00
8:35 PM,44.6,41.0,87,29.99,7.0,ENE,4.6,-,N/A,,Overcast,60,2012-12-09 02:35:00
8:55 PM,44.6,41.0,87,29.99,7.0,NE,4.6,-,N/A,,Overcast,50,2012-12-09 02:55:00
9:15 PM,44.6,42.8,93,29.99,7.0,NE,5.8,-,N/A,,Overcast,40,2012-12-09 03:15:00
9:35 PM,44.6,42.8,93,30.00,7.0,Calm,Calm,-,N/A,,Overcast,0,2012-12-09 03:35:00
9:55 PM,44.6,42.8,93,29.99,7.0,ENE,5.8,-,N/A,,Overcast,70,2012-12-09 03:55:00
10:35 PM,44.6,42.8,93,29.99,5.0,NE,3.5,-,N/A,,Mostly Cloudy,40,2012-12-09 04:35:00
10:55 PM,44.6,42.8,93,30.00,5.0,Calm,Calm,-,N/A,,Overcast,0,2012-12-09 04:55:00
11:15 PM,44.6,42.8,93,29.99,7.0,NE,5.8,-,N/A,,Overcast,40,2012-12-09 05:15:00
11:35 PM,44.6,42.8,93,29.99,5.0,NE,4.6,-,N/A,,Overcast,50,2012-12-09 05:35:00
11:55 PM,44.6,42.8,93,29.99,5.0,NE,5.8,-,N/A,,Overcast,40,2012-12-09 05:55:00